Location: Hickory_CSC
(35.7330°N, 81.3330°W)
Time: 15:26:55
(UTC-04:00)

Cosmos 1356 Rocket - Visible Passes

Search period start: 31 July 2015 00:00
Search period end: 10 August 2015 00:00
Orbit: 546 x 603 km, 81.2° (Epoch: 30 July)

Date Brightness Start Highest point End Pass type
(mag) Time Alt. Az. Time Alt. Az. Time Alt. Az.
31 Jul 6.1 00:09:13 14° NNE 00:09:13 14° NNE 00:09:53 10° NNE visible
01 Aug 6.0 00:12:23 16° N 00:12:23 16° N 00:13:17 10° N visible
02 Aug 6.0 00:15:33 17° N 00:15:33 17° N 00:16:35 10° N visible
03 Aug 6.0 00:18:41 18° N 00:18:41 18° N 00:19:49 10° N visible
04 Aug 6.1 00:21:48 17° NNW 00:21:48 17° NNW 00:22:57 10° NNW visible
05 Aug 6.2 00:24:54 15° NNW 00:24:54 15° NNW 00:25:59 10° NNW visible
05 Aug 5.8 22:51:45 14° NE 22:51:45 14° NE 22:52:25 10° NE visible
06 Aug 6.3 00:27:58 13° NW 00:27:58 13° NW 00:28:51 10° NNW visible
06 Aug 5.5 22:54:48 18° NE 22:54:48 18° NE 22:56:01 10° NNE visible
07 Aug 6.5 00:31:00 11° NW 00:31:00 11° NW 00:31:25 10° NW visible
07 Aug 5.2 22:57:48 23° NNE 22:57:48 23° NNE 22:59:31 10° NNE visible
08 Aug 4.9 23:00:46 30° NNE 23:00:46 30° NNE 23:02:55 10° NNE visible
09 Aug 4.7 23:03:42 36° N 23:03:42 36° N 23:06:14 10° N visible
